Hourly Data Report for October 17, 2013

All times are specified in Local Standard Time (LST). Add 1 hour to adjust for Daylight Saving Time where and when it is observed.

MONCTON INTL A
NEW BRUNSWICK

46°06'44.000" N
64°40'43.000" W
70.70 m
8103201
71705
YQM

Download Data

Hourly Data (October 2013)
Hourly Data Report for October 17, 2013
Temp Definition
°C
Dew Point Temp Definition
°C
Rel Hum Definition
%
Wind Dir Definition
10's deg

Wind Spd Definition
km/h
Visibility Definition
km
Stn Press Definition
kPa
Hmdx Definition


Wind Chill Definition


Weather Definition


TIME
00:00 Legend Double Dagger 12.1 11.6 97 12 13 24.1 100.47     LegendNANA
01:00 Legend Double Dagger 11.9 11.6 98 9 10 24.1 100.38     LegendNANA
02:00 Legend Double Dagger 12.1 11.8 98 7 6 24.1 100.28     Cloudy
03:00 Legend Double Dagger 12.3 12.0 98 10 8 24.1 100.20     LegendNANA
04:00 Legend Double Dagger 12.4 12.1 98 11 7 16.1 100.14     Drizzle
05:00 Legend Double Dagger 12.5 12.4 99 11 9 19.3 100.08     Cloudy
06:00 Legend Double Dagger 12.2 12.1 99 13 8 2.8 100.03     Fog
07:00 Legend Double Dagger 13.1 13.0 99 14 7 4.8 100.03     Fog
08:00 Legend Double Dagger 13.8 13.7 99 15 7 2.0 100.03     Drizzle,Fog
09:00 Legend Double Dagger 14.8 14.5 98 17 7 1.2 99.99     Drizzle,Fog
10:00 Legend Double Dagger 15.7 15.2 97 21 9 2.8 99.95     Drizzle,Fog
11:00 Legend Double Dagger 16.8 15.2 90 23 5 24.1 99.85     Mostly Cloudy
12:00 Legend Double Dagger 18.1 16.3 89 23 8 24.1 99.81     LegendNANA
13:00 Legend Double Dagger 18.5 16.3 87 23 9 24.1 99.77     LegendNANA
14:00 Legend Double Dagger 19.5 14.0 70 24 17 24.1 99.72     Mostly Cloudy
15:00 Legend Double Dagger 18.9 13.6 71 25 14 24.1 99.68     LegendNANA
16:00 Legend Double Dagger 18.2 13.4 73 24 22 24.1 99.69     LegendNANA
17:00 Legend Double Dagger 15.8 13.0 83 26 22 24.1 99.71     Mostly Cloudy
18:00 Legend Double Dagger 14.7 12.4 86 25 16 24.1 99.74     LegendNANA
19:00 Legend Double Dagger 13.4 11.5 88 23 15 24.1 99.78     LegendNANA
20:00 Legend Double Dagger 11.8 10.9 94 22 12 24.1 99.80     Mainly Clear
21:00 Legend Double Dagger 10.8 10.4 97 21 10 24.1 99.82     LegendNANA
22:00 Legend Double Dagger 11.8 11.3 97 23 16 19.3 99.85     LegendNANA
23:00 Legend Double Dagger 11.9 11.4 97 22 14 19.3 99.80     Cloudy

Notes on Data Quality.

Legend

  • E = Estimated
  • M = Missing
  • NA = Not Available
  • ‡ = Partner data that is not subject to review by the National Climate Archives
Date modified: